Change the Weather History Date:

Sunday, May 19, 2013

  Actual Average (PAOT) Record (PAOT)
Temperature  
Mean Temperature 34 °F 34 °F  
Max Temperature 39 °F 39 °F 58 °F (2002)
Min Temperature 28 °F 28 °F 15 °F (1973)
Degree Days  
Heating Degree Days 32 31  
Month to date heating degree days 681  
Since 1 July heating degree days 14461  
Cooling Degree Days 0    
Month to date cooling degree days  
Year to date cooling degree days  
Moisture  
Dew Point 26 °F    
Average Humidity 74    
Maximum Humidity 87    
Minimum Humidity 65    
Precipitation  
Precipitation 0.00 in 0.01 in 0.32 in (1963)
Month to date precipitation 0.27  
Year to date precipitation 2.53  
Snow  
Snow 0.00 in 0.10 in 1.10 in (1964)
Month to date snowfall 1.1  
Since 1 July snowfall 59.7  
Snow Depth -    
Sea Level Pressure  
Sea Level Pressure 30.17 in    
Wind  
Wind Speed 18 mph (SSE)    
Max Wind Speed 29 mph    
Max Gust Speed 36 mph    
Visibility 9 miles    
Events Snow    
T = Trace of Precipitation, MM = Missing Value Source: NWS Daily Summary

Daily Weather History Graph

Daily Weather History Graph

Search for Another Location

Airport or City:

Trip Planner

Search our weather history database for the weather conditions in past years. The results will help you decide how hot, cold, wet, or windy it might be!

Date:

Astronomy

May. 19, 2013 Rise Set
Actual Time 4:53 AM AKDT 12:44 AM AKDT
Civil Twilight 3:19 AM AKDT 2:15 AM AKDT
Nautical Twilight Sun does not rise Sun does not rise
Astronomical Twilight Sun does not rise Sun does not rise
Moon 4:23 PM AKDT (5/19) 4:12 AM AKDT (5/19)
Length of Visible Light 22h 55m
Length of Day
19h 51m
Waxing Gibbous, 66% of the Moon is Illuminated
May 19
Waxing Gibbous
May 24
Full
May 31
Last Quarter
Jun 8
New
Jun 16
First Quarter

Hourly Weather History & Observations

Time (AKDT) Temp. Windchill Dew Point Humidity Pressure Visibility Wind Dir Wind Speed Gust Speed Precip Events Conditions
12:53 AM 30.0 °F 19.5 °F 21.9 °F 72% 30.04 in 10.0 mi SSE 13.8 mph - N/A   Partly Cloudy
1:53 AM 28.0 °F 19.3 °F 21.0 °F 75% 30.06 in 10.0 mi SE 9.2 mph - N/A   Clear
2:53 AM 28.9 °F 23.9 °F 21.9 °F 75% 30.07 in 10.0 mi SSE 4.6 mph - N/A   Clear
3:53 AM 30.9 °F 17.8 °F 23.0 °F 72% 30.05 in 10.0 mi South 23.0 mph 33.4 mph N/A   Overcast
4:53 AM 30.0 °F 16.0 °F 21.9 °F 72% 30.05 in 10.0 mi SSE 25.3 mph - N/A   Mostly Cloudy
5:53 AM 28.9 °F 15.4 °F 21.9 °F 75% 30.07 in 10.0 mi SE 21.9 mph 32.2 mph N/A   Mostly Cloudy
6:53 AM 30.0 °F 17.2 °F 23.0 °F 75% 30.08 in 10.0 mi SSE 20.7 mph - N/A   Overcast
7:53 AM 30.9 °F 18.7 °F 24.1 °F 76% 30.09 in 10.0 mi SSE 19.6 mph 27.6 mph N/A   Overcast
8:53 AM 30.9 °F 18.1 °F 25.0 °F 79% 30.10 in 6.0 mi SSE 21.9 mph - N/A   Haze
9:53 AM 32.0 °F 18.4 °F 27.0 °F 82% 30.11 in 6.0 mi SSE 26.5 mph 32.2 mph 0.00 in   Haze
10:07 AM 32.0 °F 18.9 °F 26.6 °F 80% 30.11 in 1.8 mi SSE 24.2 mph 32.2 mph 0.00 in Snow Light Snow
10:22 AM 32.0 °F 19.2 °F 28.4 °F 87% 30.11 in 2.0 mi SSE 23.0 mph 31.1 mph 0.00 in Snow Light Snow
10:36 AM 32.0 °F 17.9 °F 28.4 °F 87% 30.10 in 3.0 mi SE 28.8 mph 32.2 mph 0.00 in Snow Light Snow
10:53 AM 33.1 °F 21.9 °F 28.0 °F 82% 30.12 in 4.0 mi SSE 18.4 mph - 0.00 in Snow Light Snow
11:15 AM 33.8 °F 22.2 °F 28.4 °F 81% 30.12 in 4.0 mi SSE 20.7 mph 31.1 mph 0.00 in Snow Light Snow
11:44 AM 35.6 °F 24.5 °F 28.4 °F 75% 30.14 in 9.0 mi SSE 20.7 mph 28.8 mph 0.00 in   Overcast
11:53 AM 36.0 °F 25.0 °F 28.9 °F 76% 30.14 in 10.0 mi SSE 20.7 mph 26.5 mph 0.00 in   Overcast
12:53 PM 37.0 °F 28.1 °F 28.9 °F 73% 30.17 in 10.0 mi South 15.0 mph - N/A   Overcast
1:36 PM 37.4 °F 26.9 °F 28.4 °F 70% 30.19 in 10.0 mi SSE 20.7 mph 27.6 mph N/A   Overcast
1:53 PM 37.9 °F 27.9 °F 28.9 °F 70% 30.19 in 10.0 mi South 19.6 mph - N/A   Overcast
2:16 PM 39.2 °F 29.8 °F 30.2 °F 70% 30.20 in 10.0 mi SSW 18.4 mph 27.6 mph N/A   Overcast
2:53 PM 39.0 °F 29.0 °F 28.9 °F 67% 30.22 in 10.0 mi South 20.7 mph - N/A   Overcast
3:53 PM 39.0 °F 27.6 °F 28.9 °F 67% 30.22 in 10.0 mi SSW 27.6 mph 35.7 mph N/A   Overcast
4:53 PM 39.0 °F 29.3 °F 28.9 °F 67% 30.26 in 10.0 mi South 19.6 mph 27.6 mph N/A   Overcast
5:53 PM 37.0 °F 28.1 °F 26.1 °F 65% 30.30 in 10.0 mi South 15.0 mph - N/A   Overcast
6:53 PM 35.1 °F 25.2 °F 26.1 °F 70% 30.32 in 10.0 mi SSE 16.1 mph - N/A   Overcast
7:53 PM 35.1 °F 23.8 °F 26.1 °F 70% 30.32 in 10.0 mi South 20.7 mph 29.9 mph N/A   Overcast
8:53 PM 34.0 °F 23.0 °F 26.1 °F 73% 30.34 in 10.0 mi South 18.4 mph - N/A   Overcast
9:53 PM 35.1 °F 25.2 °F 26.1 °F 70% 30.34 in 10.0 mi SSE 16.1 mph - N/A   Overcast
10:53 PM 35.1 °F 24.1 °F 26.1 °F 70% 30.33 in 10.0 mi South 19.6 mph 28.8 mph N/A   Overcast
11:53 PM 34.0 °F 23.4 °F 26.1 °F 73% 30.34 in 10.0 mi South 17.3 mph - N/A   Overcast